Overview Statistics Trail Chart Weather Telemetry Raw packets
 

This is the latest recevied weather packets stored in our database for station/object GBTWP-2. If no packets are shown the sender has not sent any weather packets the latest 10 day(s).

<< 29 30 31 32 33 34 35 >>
Time Temp. Humidity Pressure Rain* Wind** Luminosity Snow
1788481020 20.56° C 97% 1017.3 hPa 0 mm - 1 W/m² -
1788480719 21.11° C 97% 1017.1 hPa 0 mm - 1 W/m² -
1788480420 21.11° C 97% 1017.1 hPa 0 mm - 2 W/m² -
1788480119 21.11° C 97% 1017 hPa 0 mm - 3 W/m² -
1788479820 21.11° C 97% 1017.2 hPa 0 mm - 5 W/m² -
1788479519 21.11° C 97% 1017.1 hPa 0 mm - 7 W/m² -
1788479220 21.11° C 97% 1017 hPa 0 mm - 11 W/m² -
1788478919 21.11° C 96% 1017.1 hPa 0 mm - 16 W/m² -
1788478620 21.11° C 97% 1017.1 hPa 0 mm - 18 W/m² -
1788478320 21.11° C 97% 1017.2 hPa 0 mm - 18 W/m² -
1788478018 21.11° C 97% 1017 hPa 0 mm - 21 W/m² -
1788477719 21.67° C 97% 1017.1 hPa 0 mm - 25 W/m² -
1788477420 21.67° C 97% 1016.9 hPa 0 mm - 35 W/m² -
1788477119 21.11° C 97% 1016.7 hPa 0 mm - 35 W/m² -
1788476820 21.11° C 97% 1016.5 hPa 0 mm - 42 W/m² -
1788476519 21.11° C 97% 1016.4 hPa 0 mm - 32 W/m² -
1788476220 21.11° C 97% 1016.4 hPa 0 mm - 28 W/m² -
1788475919 21.11° C 97% 1016.4 hPa 0 mm - 32 W/m² -
1788475622 21.11° C 97% 1016.4 hPa 0 mm - 34 W/m² -
1788475320 21.11° C 97% 1016.4 hPa 0 mm - 33 W/m² -
1788475019 21.11° C 97% 1016.2 hPa 0 mm - 35 W/m² -
1788474720 21.11° C 97% 1016.4 hPa 0 mm - 23 W/m² -
1788474419 21.67° C 97% 1016.3 hPa 0 mm - 21 W/m² -
1788474120 21.67° C 97% 1016.8 hPa 0 mm - 30 W/m² -
1788473819 21.11° C 97% 1016.8 hPa 0 mm - 39 W/m² -

* Rain latest hour (hover to see other rain measurements)
** Current wind speed in m/s (hover to see current wind gust speed)